Tracking 18840 objects as of 19-November-2017
HD Live streaming from Space Station
objects crossing your sky now

FENGYUN 1C DEB

Track FENGYUN 1C DEB now!
10-day predictions


NORAD ID: 31272
Int'l Code: 1999-025BNE
Perigee: 759.1 km
Apogee: 925.3 km
Inclination: 99.0 °
Period: 101.6 minutes
Semi major axis: 7213 km
RCS: 0.0083 m2 (small)
Launch date: May 10, 1999
Source: People's Republic of China (PRC)
Launch site: Taiyaun Space Center, China (TSC)

Note: This is SATELLITE DEBRIS
aabbcc
Your satellite tracking list
Your tracking list is empty




NASA's NSSDC Master Catalog

Two Line Element Set (TLE):
1 31272U 99025BNE 17323.12350990  .00000272  00000-0  14797-3 0  9997
2 31272  98.9956  73.2120 0115147 202.2736 281.9268 14.17135385552533
Source of the keplerian elements: AFSPC